Simultaneous Nadir Overpasses (SNOs) Predictions

Prediction of SNOs between AURA and NPP Satellite Orbit:

Table of predicted SNOs for the next 14.0 days since TLE Epoch: 5/12/2017
Index Date (AURA) Time (AURA) Lat,Lon (AURA) SZA (AURA ) Date (NPP) Time (NPP) Lat,Lon (NPP) SZA (NPP ) Distance(km) Time Diff (sec)
1 05/14/2017 03:41:29 -79.47,-158.85 106.06 05/14/2017 03:41:21 -79.48,-158.72 106.08 2.73 8
2 05/14/2017 04:30:50 79.66, 10.16 73.65 05/14/2017 04:32:00 79.66, 10.13 73.60 0.70 70
3 05/16/2017 19:08:38 79.21, 147.68 73.72 05/16/2017 19:07:39 79.21, 147.64 73.77 0.65 59
4 05/16/2017 19:57:57 -79.52, -42.63 106.74 05/16/2017 19:58:15 -79.53, -42.56 106.77 1.60 18
5 05/19/2017 11:25:05 79.29, -95.92 73.03 05/19/2017 11:24:32 79.29, -95.97 73.06 0.98 33
6 05/19/2017 12:14:24 -79.60, 73.81 107.43 05/19/2017 12:15:08 -79.60, 73.87 107.48 1.06 44
7 05/22/2017 03:41:30 79.41, 20.71 72.33 05/22/2017 03:41:23 79.40, 20.68 72.35 0.70 7
8 05/22/2017 04:30:50 -79.68,-169.76 108.08 05/22/2017 04:32:00 -79.68,-169.71 108.14 1.12 70
9 05/24/2017 19:08:36 -79.29, -31.82 107.98 05/24/2017 19:07:37 -79.30, -31.70 107.96 2.55 59




NCC Satellite Simultaneous Nadir Overpasses (SNOs) Prediction Service
